Location: Ferintosh
(52.7647°N, 112.9692°W)
Time: 17:30:27
(UTC+00:00)

A-11 Canister half - Pass Details

Date: 25 May 2024
Orbit: 1515 x 1685 km, 47.2° (Epoch: 12 June)

Event Time Altitude Azimuth Distance (km) Brightness Sun altitude
Rises 16:06:07 0° 285° (WNW) 4,675 11.1 40.1°
Reaches altitude 10° 16:10:19 10° 268° (W) 3,679 10.7 40.7°
Maximum altitude 16:16:05 19° 229° (SW) 3,045 10.5 41.5°
Drops below altitude 10° 16:21:51 10° 189° (S) 3,678 11.3 42.3°
Sets 16:26:05 0° 173° (S) 4,672 11.9 42.9°
